This demonstration page uses our WeatherBlox Daily Observations layout. Learn more.

Left ArrowRight Arrow

Hourly Observations for August 23, 2015

Temp ( °F °C ) Dew Point ( °F °C ) Humidity (%) Winds ( mph kmh ) Pressure ( in mb ) Visibility ( mi km ) Precip ( " mm )
12:53 am 00:53 Clear 61 16.1 59 15 93 93 N N/A 30.05 1018 10 16 N/A
1:53 am 01:53 Clear 60 15.6 59 15 96 96 N N/A 30.05 1018 8 13 N/A
2:53 am 02:53 Clear 60 15.6 58 14.4 93 93 N N/A 30.03 1017 10 16 N/A
3:53 am 03:53 Clear 59 15 58 14.4 96 96 N N/A 30.01 1016 10 16 N/A
4:53 am 04:53 Clear 59 15 57 13.9 93 93 N N/A 29.99 1016 9 14 N/A
5:53 am 05:53 Clear 59 15 57 13.9 93 93 N N/A 29.99 1016 8 13 N/A
6:53 am 06:53 Clear with Mist and Fog 58 14.4 57 13.9 97 97 N N/A 30.00 1016 6 10 N/A
7:53 am 07:53 Sunny 62 16.7 60 15.6 93 93 N N/A 30.01 1016 8 13 N/A
8:53 am 08:53 Sunny 68 20 61 16.1 78 78 N N/A 30.01 1016 10 16 N/A
9:53 am 09:53 Sunny 74 23.3 63 17.2 69 69 N N/A 30.00 1016 10 16 N/A
10:53 am 10:53 Sunny 77 25 64 17.8 64 64 N N/A 29.97 1015 10 16 N/A
11:53 am 11:53 Sunny 81 27.2 64 17.8 57 57 W 3 6 29.96 1015 10 16 N/A
12:53 pm 12:53 Mostly Cloudy 84 28.9 62 16.7 48 48 WNW 7 11 29.96 1014 10 16 N/A
1:53 pm 13:53 Mostly Cloudy 84 28.9 65 18.3 53 53 VRB 5 7 29.95 1014 10 16 N/A
2:53 pm 14:53 Mostly Sunny 86 30 68 20 55 55 VRB 6 9 29.92 1013 10 16 N/A
3:53 pm 15:53 Sunny 86 30 68 20 55 55 SW 8 13 29.91 1013 10 16 N/A
4:53 pm 16:53 Mostly Sunny 84 28.9 68 20 59 59 VRB 6 9 29.89 1012 10 16 N/A
5:53 pm 17:53 Mostly Sunny 84 28.9 68 20 59 59 VRB 6 9 29.88 1012 10 16 N/A
6:53 pm 18:53 Sunny 83 28.3 69 20.6 63 63 VRB 5 7 29.87 1012 10 16 N/A
7:53 pm 19:53 Mostly Sunny 80 26.7 70 21.1 71 71 N N/A 29.87 1011 10 16 N/A
10:53 pm 22:53 Mostly Cloudy 76 24.4 69 20.6 79 79 NW 14 22 29.91 1013 10 16 N/A
11:05 pm 23:05 Mostly Cloudy 74 23.3 64 17.8 71 71 NW 15 24 29.94 1014 10 16 N/A
11:53 pm 23:53 Partly Cloudy 72 22.2 63 17.2 73 73 NW 9 15 29.93 1014 10 16 N/A

Powered by AerisWeather